Time,TemperatureF,DewpointF,PressureIn,WindDirection,WindDirectionDegrees,WindSpeedMPH,WindSpeedGustMPH,Humidity,HourlyPrecipIn,Conditions,Clouds,dailyrainin,SoftwareType,DateUTC
2013-02-06 00:01:00,4.0,-2.0,-100.00,ENE,60,0.0,1.0,77,0.00,,,0.00,,2013-02-06 06:01:00,
2013-02-06 00:11:00,5.0,0.0,-100.00,ENE,60,0.0,1.0,77,0.00,,,0.00,,2013-02-06 06:11:00,
2013-02-06 00:21:00,5.0,0.0,-100.00,West,260,1.0,1.0,77,0.00,,,0.00,,2013-02-06 06:21:00,
2013-02-06 00:32:00,5.0,0.0,-100.00,NE,55,0.0,0.0,77,0.00,,,0.00,,2013-02-06 06:32:00,
2013-02-06 00:42:00,5.0,0.0,-100.00,ESE,110,0.0,1.0,77,0.00,,,0.00,,2013-02-06 06:42:00,
2013-02-06 00:51:00,5.0,0.0,-100.00,South,170,1.0,1.0,77,0.00,,,0.00,,2013-02-06 06:51:00,
2013-02-06 01:01:00,5.0,0.0,-100.00,SSE,150,1.0,1.0,77,0.00,,,0.00,,2013-02-06 07:01:00,
2013-02-06 01:11:00,5.0,0.0,-100.00,SE,125,1.0,2.0,77,0.00,,,0.00,,2013-02-06 07:11:00,
2013-02-06 01:21:00,5.0,0.0,-100.00,SW,220,1.0,1.0,77,0.00,,,0.00,,2013-02-06 07:21:00,
2013-02-06 01:32:00,5.0,0.0,-100.00,South,175,1.0,1.0,77,0.00,,,0.00,,2013-02-06 07:32:00,
2013-02-06 01:41:00,4.0,0.0,-100.00,SSE,150,0.0,1.0,77,0.00,,,0.00,,2013-02-06 07:41:00,
2013-02-06 01:51:00,4.0,-2.0,-100.00,SW,235,1.0,2.0,77,0.00,,,0.00,,2013-02-06 07:51:00,
2013-02-06 02:01:00,4.0,-2.0,-100.00,WSW,250,2.0,3.0,78,0.00,,,0.00,,2013-02-06 08:01:00,
2013-02-06 02:11:00,4.0,0.0,-100.00,SSW,205,1.0,4.0,78,0.00,,,0.00,,2013-02-06 08:11:00,
2013-02-06 02:21:00,4.0,0.0,-100.00,SW,230,2.0,2.0,78,0.00,,,0.00,,2013-02-06 08:21:00,
2013-02-06 02:31:00,5.0,0.0,-100.00,SSW,210,2.0,3.0,78,0.00,,,0.00,,2013-02-06 08:31:00,
2013-02-06 02:41:00,6.0,0.0,-100.00,SW,230,3.0,4.0,78,0.00,,,0.00,,2013-02-06 08:41:00,
2013-02-06 02:53:00,6.0,0.0,-100.00,SW,225,2.0,4.0,78,0.00,,,0.00,,2013-02-06 08:53:00,
2013-02-06 03:01:00,6.0,0.0,-100.00,WSW,240,3.0,4.0,77,0.00,,,0.00,,2013-02-06 09:01:00,
2013-02-06 03:11:00,6.0,0.0,-100.00,WSW,240,2.0,4.0,77,0.00,,,0.00,,2013-02-06 09:11:00,
2013-02-06 03:21:00,6.0,1.0,-100.00,SSW,210,1.0,3.0,76,0.00,,,0.00,,2013-02-06 09:21:00,
2013-02-06 03:31:00,6.0,0.0,-100.00,South,190,0.0,2.0,76,0.00,,,0.00,,2013-02-06 09:31:00,
2013-02-06 03:41:00,6.0,0.0,-100.00,SE,145,2.0,2.0,75,0.00,,,0.00,,2013-02-06 09:41:00,
2013-02-06 03:51:00,6.0,0.0,-100.00,SE,140,2.0,2.0,75,0.00,,,0.00,,2013-02-06 09:51:00,
2013-02-06 04:01:00,5.0,0.0,-100.00,ENE,75,2.0,2.0,75,0.00,,,0.00,,2013-02-06 10:01:00,
2013-02-06 04:11:00,5.0,0.0,-100.00,ESE,120,1.0,3.0,75,0.00,,,0.00,,2013-02-06 10:11:00,
2013-02-06 04:21:00,4.0,-2.0,-100.00,ESE,115,2.0,2.0,76,0.00,,,0.00,,2013-02-06 10:21:00,
2013-02-06 04:31:00,4.0,-2.0,-100.00,ESE,115,2.0,3.0,76,0.00,,,0.00,,2013-02-06 10:31:00,
2013-02-06 04:42:00,4.0,-2.0,-100.00,SE,140,3.0,4.0,77,0.00,,,0.00,,2013-02-06 10:42:00,
2013-02-06 04:51:00,4.0,-2.0,-100.00,SE,145,2.0,4.0,77,0.00,,,0.00,,2013-02-06 10:51:00,
2013-02-06 05:01:00,4.0,-2.0,-100.00,SSE,150,1.0,2.0,77,0.00,,,0.00,,2013-02-06 11:01:00,
2013-02-06 05:11:00,3.0,-2.0,-100.00,SE,145,3.0,4.0,77,0.00,,,0.00,,2013-02-06 11:11:00,
2013-02-06 05:22:00,3.0,-2.0,-100.00,ESE,120,2.0,4.0,78,0.00,,,0.00,,2013-02-06 11:22:00,
2013-02-06 05:32:00,3.0,-2.0,-100.00,SE,125,2.0,3.0,78,0.00,,,0.00,,2013-02-06 11:32:00,
2013-02-06 05:42:00,3.0,-2.0,-100.00,SE,145,2.0,3.0,78,0.00,,,0.00,,2013-02-06 11:42:00,
2013-02-06 05:52:00,4.0,0.0,-100.00,SSE,165,3.0,4.0,78,0.00,,,0.00,,2013-02-06 11:52:00,
2013-02-06 06:02:00,5.0,0.0,-100.00,South,180,4.0,4.0,78,0.00,,,0.00,,2013-02-06 12:02:00,
2013-02-06 06:12:00,5.0,0.0,-100.00,South,175,3.0,6.0,78,0.00,,,0.00,,2013-02-06 12:12:00,
2013-02-06 06:22:00,6.0,0.0,-100.00,South,170,1.0,5.0,78,0.00,,,0.00,,2013-02-06 12:22:00,
2013-02-06 06:32:00,6.0,1.0,-100.00,SW,215,1.0,2.0,78,0.00,,,0.00,,2013-02-06 12:32:00,
2013-02-06 06:42:00,6.0,1.0,-100.00,SW,230,2.0,3.0,77,0.00,,,0.00,,2013-02-06 12:42:00,
2013-02-06 06:52:00,6.0,1.0,-100.00,SSW,205,1.0,2.0,77,0.00,,,0.00,,2013-02-06 12:52:00,
2013-02-06 07:01:00,7.0,1.0,-100.00,SSE,150,2.0,2.0,76,0.00,,,0.00,,2013-02-06 13:01:00,
2013-02-06 07:11:00,7.0,1.0,-100.00,SSE,150,2.0,2.0,76,0.00,,,0.00,,2013-02-06 13:11:00,
2013-02-06 07:22:00,7.0,1.0,-100.00,SSE,150,1.0,3.0,75,0.00,,,0.00,,2013-02-06 13:22:00,
2013-02-06 07:32:00,7.0,1.0,-100.00,SSW,210,1.0,2.0,75,0.00,,,0.00,,2013-02-06 13:32:00,
2013-02-06 07:42:00,8.0,1.0,-100.00,SSW,210,2.0,4.0,75,0.00,,,0.00,,2013-02-06 13:42:00,
2013-02-06 07:52:00,8.0,1.0,-100.00,SSW,210,3.0,5.0,75,0.00,,,0.00,,2013-02-06 13:52:00,
2013-02-06 08:01:00,8.0,1.0,-100.00,SW,215,4.0,6.0,74,0.00,,,0.00,,2013-02-06 14:01:00,
2013-02-06 08:11:00,9.0,1.0,-100.00,WSW,250,4.0,6.0,73,0.00,,,0.00,,2013-02-06 14:11:00,
2013-02-06 08:21:00,10.0,3.0,-100.00,WSW,240,6.0,9.0,72,0.00,,,0.00,,2013-02-06 14:21:00,
2013-02-06 08:32:00,10.0,3.0,-100.00,SW,235,6.0,9.0,71,0.00,,,0.00,,2013-02-06 14:32:00,
2013-02-06 08:42:00,11.0,3.0,-100.00,SW,230,5.0,8.0,70,0.00,,,0.00,,2013-02-06 14:42:00,
2013-02-06 08:52:00,11.0,3.0,-100.00,WSW,245,4.0,7.0,69,0.00,,,0.00,,2013-02-06 14:52:00,
2013-02-06 09:01:00,12.0,3.0,-100.00,SSW,205,6.0,9.0,68,0.00,,,0.00,,2013-02-06 15:01:00,
2013-02-06 09:11:00,12.0,3.0,-100.00,SSW,210,4.0,8.0,67,0.00,,,0.00,,2013-02-06 15:11:00,
2013-02-06 09:21:00,13.0,3.0,-100.00,SW,225,4.0,7.0,66,0.00,,,0.00,,2013-02-06 15:21:00,
2013-02-06 09:31:00,13.0,3.0,-100.00,SW,215,4.0,6.0,65,0.00,,,0.00,,2013-02-06 15:31:00,
2013-02-06 09:41:00,14.0,3.0,-100.00,SSW,200,4.0,7.0,64,0.00,,,0.00,,2013-02-06 15:41:00,
2013-02-06 09:52:00,14.0,3.0,-100.00,SW,230,5.0,7.0,63,0.00,,,0.00,,2013-02-06 15:52:00,
2013-02-06 10:01:00,14.0,3.0,-100.00,SW,220,3.0,6.0,63,0.00,,,0.00,,2013-02-06 16:01:00,
2013-02-06 10:11:00,15.0,5.0,-100.00,South,175,2.0,6.0,62,0.00,,,0.00,,2013-02-06 16:11:00,
2013-02-06 10:21:00,16.0,5.0,-100.00,SSW,200,4.0,6.0,61,0.00,,,0.00,,2013-02-06 16:21:00,
2013-02-06 10:32:00,15.0,5.0,-100.00,SW,215,4.0,6.0,61,0.00,,,0.00,,2013-02-06 16:32:00,
2013-02-06 10:42:00,15.0,5.0,-100.00,SSW,210,3.0,6.0,64,0.00,,,0.00,,2013-02-06 16:42:00,
2013-02-06 10:51:00,16.0,7.0,-100.00,SSW,200,4.0,6.0,66,0.00,,,0.00,,2013-02-06 16:51:00,
2013-02-06 11:02:00,16.0,7.0,-100.00,SSW,200,2.0,4.0,68,0.00,,,0.00,,2013-02-06 17:02:00,
2013-02-06 11:11:00,16.0,7.0,-100.00,SSW,210,4.0,6.0,69,0.00,,,0.00,,2013-02-06 17:11:00,
2013-02-06 11:21:00,17.0,9.0,-100.00,SSW,200,5.0,6.0,70,0.00,,,0.00,,2013-02-06 17:21:00,
2013-02-06 11:32:00,17.0,10.0,-100.00,South,190,4.0,6.0,71,0.00,,,0.00,,2013-02-06 17:32:00,
2013-02-06 11:41:00,17.0,10.0,-100.00,SSW,210,4.0,8.0,73,0.00,,,0.00,,2013-02-06 17:41:00,
2013-02-06 11:52:00,17.0,10.0,-100.00,SSW,195,4.0,6.0,74,0.00,,,0.00,,2013-02-06 17:52:00,
2013-02-06 12:01:00,17.0,10.0,-100.00,SSW,200,7.0,9.0,75,0.00,,,0.00,,2013-02-06 18:01:00,
2013-02-06 12:11:00,17.0,10.0,-100.00,SSW,205,6.0,8.0,76,0.00,,,0.00,,2013-02-06 18:11:00,
2013-02-06 12:23:00,17.0,10.0,-100.00,SSW,200,5.0,7.0,77,0.00,,,0.00,,2013-02-06 18:23:00,
2013-02-06 12:32:00,18.0,12.0,-100.00,South,190,4.0,6.0,77,0.00,,,0.00,,2013-02-06 18:32:00,
2013-02-06 12:41:00,18.0,12.0,-100.00,SW,225,5.0,7.0,79,0.00,,,0.00,,2013-02-06 18:41:00,
2013-02-06 12:52:00,18.0,12.0,-100.00,SW,220,4.0,9.0,80,0.00,,,0.00,,2013-02-06 18:52:00,
2013-02-06 13:01:00,18.0,14.0,-100.00,SSW,200,6.0,7.0,81,0.00,,,0.00,,2013-02-06 19:01:00,
2013-02-06 13:11:00,19.0,14.0,-100.00,South,185,4.0,7.0,80,0.00,,,0.00,,2013-02-06 19:11:00,
2013-02-06 13:21:00,19.0,14.0,-100.00,South,190,4.0,8.0,80,0.00,,,0.00,,2013-02-06 19:21:00,
2013-02-06 13:31:00,20.0,14.0,-100.00,South,175,6.0,7.0,79,0.00,,,0.00,,2013-02-06 19:31:00,
2013-02-06 13:41:00,19.0,14.0,-100.00,SSW,195,4.0,9.0,79,0.00,,,0.00,,2013-02-06 19:41:00,
2013-02-06 13:52:00,20.0,14.0,-100.00,South,185,4.0,9.0,79,0.00,,,0.00,,2013-02-06 19:52:00,
2013-02-06 14:01:00,20.0,14.0,-100.00,South,170,7.0,9.0,79,0.00,,,0.00,,2013-02-06 20:01:00,
2013-02-06 14:11:00,20.0,14.0,-100.00,South,175,6.0,9.0,79,0.00,,,0.00,,2013-02-06 20:11:00,
2013-02-06 14:21:00,20.0,16.0,-100.00,South,185,9.0,10.0,79,0.00,,,0.00,,2013-02-06 20:21:00,
2013-02-06 14:32:00,20.0,14.0,-100.00,South,175,6.0,11.0,80,0.00,,,0.00,,2013-02-06 20:32:00,
2013-02-06 14:41:00,20.0,14.0,-100.00,South,185,6.0,11.0,80,0.00,,,0.00,,2013-02-06 20:41:00,
2013-02-06 14:52:00,19.0,14.0,-100.00,South,190,8.0,11.0,80,0.00,,,0.00,,2013-02-06 20:52:00,
2013-02-06 15:01:00,19.0,14.0,-100.00,South,190,6.0,11.0,81,0.00,,,0.00,,2013-02-06 21:01:00,
2013-02-06 15:11:00,19.0,14.0,-100.00,South,190,6.0,11.0,81,0.00,,,0.00,,2013-02-06 21:11:00,
2013-02-06 15:21:00,20.0,16.0,-100.00,South,175,6.0,10.0,81,0.00,,,0.00,,2013-02-06 21:21:00,
2013-02-06 15:32:00,19.0,14.0,-100.00,South,190,7.0,10.0,81,0.00,,,0.00,,2013-02-06 21:32:00,
2013-02-06 15:41:00,19.0,14.0,-100.00,SSE,160,6.0,11.0,81,0.00,,,0.00,,2013-02-06 21:41:00,
2013-02-06 15:52:00,19.0,14.0,-100.00,SSE,165,7.0,11.0,81,0.00,,,0.00,,2013-02-06 21:52:00,
2013-02-06 16:01:00,19.0,14.0,-100.00,SSE,165,7.0,13.0,81,0.00,,,0.00,,2013-02-06 22:01:00,
2013-02-06 16:11:00,19.0,14.0,-100.00,SSE,160,7.0,11.0,81,0.00,,,0.00,,2013-02-06 22:11:00,
2013-02-06 16:21:00,19.0,14.0,-100.00,SSE,150,5.0,7.0,81,0.00,,,0.00,,2013-02-06 22:21:00,
2013-02-06 16:31:00,19.0,14.0,-100.00,South,180,7.0,11.0,81,0.00,,,0.00,,2013-02-06 22:31:00,
2013-02-06 16:41:00,19.0,14.0,-100.00,South,180,9.0,13.0,81,0.00,,,0.00,,2013-02-06 22:41:00,
2013-02-06 16:51:00,18.0,14.0,-100.00,SSE,165,6.0,9.0,82,0.00,,,0.00,,2013-02-06 22:51:00,
2013-02-06 17:01:00,18.0,14.0,-100.00,SE,145,5.0,6.0,82,0.00,,,0.00,,2013-02-06 23:01:00,
2013-02-06 17:11:00,18.0,14.0,-100.00,SE,145,6.0,8.0,82,0.00,,,0.00,,2013-02-06 23:11:00,
2013-02-06 17:21:00,18.0,14.0,-100.00,SSE,160,7.0,11.0,82,0.00,,,0.00,,2013-02-06 23:21:00,
2013-02-06 17:32:00,18.0,14.0,-100.00,SSE,155,5.0,10.0,82,0.00,,,0.00,,2013-02-06 23:32:00,
2013-02-06 17:41:00,18.0,14.0,-100.00,SSE,150,7.0,13.0,82,0.00,,,0.00,,2013-02-06 23:41:00,
2013-02-06 17:52:00,18.0,14.0,-100.00,SE,140,5.0,12.0,82,0.00,,,0.00,,2013-02-06 23:52:00,
2013-02-06 18:01:00,18.0,14.0,-100.00,SE,145,7.0,12.0,82,0.00,,,0.00,,2013-02-07 00:01:00,
2013-02-06 18:11:00,18.0,14.0,-100.00,SSE,155,6.0,10.0,83,0.00,,,0.00,,2013-02-07 00:11:00,
2013-02-06 18:21:00,18.0,14.0,-100.00,SSE,155,5.0,10.0,83,0.00,,,0.00,,2013-02-07 00:21:00,
2013-02-06 18:31:00,18.0,14.0,-100.00,SSE,160,6.0,10.0,83,0.00,,,0.00,,2013-02-07 00:31:00,
2013-02-06 18:42:00,18.0,14.0,-100.00,SSE,160,6.0,9.0,83,0.00,,,0.00,,2013-02-07 00:42:00,
2013-02-06 18:51:00,18.0,14.0,-100.00,SE,140,6.0,9.0,84,0.00,,,0.00,,2013-02-07 00:51:00,
2013-02-06 19:01:00,18.0,14.0,-100.00,SE,145,6.0,9.0,84,0.00,,,0.00,,2013-02-07 01:01:00,
2013-02-06 19:11:00,18.0,14.0,-100.00,SE,145,9.0,12.0,84,0.00,,,0.00,,2013-02-07 01:11:00,
2013-02-06 19:21:00,18.0,14.0,-100.00,SSE,150,4.0,7.0,84,0.00,,,0.00,,2013-02-07 01:21:00,
2013-02-06 19:31:00,18.0,14.0,-100.00,SSE,160,6.0,11.0,84,0.00,,,0.00,,2013-02-07 01:31:00,
2013-02-06 19:41:00,18.0,14.0,-100.00,SSE,150,7.0,10.0,85,0.00,,,0.00,,2013-02-07 01:41:00,
2013-02-06 19:52:00,18.0,14.0,-100.00,SSE,165,7.0,11.0,85,0.00,,,0.00,,2013-02-07 01:52:00,
2013-02-06 20:01:00,17.0,14.0,-100.00,SSE,150,6.0,11.0,85,0.01,,,0.01,,2013-02-07 02:01:00,
2013-02-06 20:11:00,17.0,14.0,-100.00,SSE,150,6.0,9.0,86,0.00,,,0.01,,2013-02-07 02:11:00,
2013-02-06 20:21:00,17.0,14.0,-100.00,SE,145,6.0,9.0,87,0.00,,,0.01,,2013-02-07 02:21:00,
2013-02-06 20:31:00,17.0,14.0,-100.00,ESE,110,4.0,9.0,88,0.00,,,0.01,,2013-02-07 02:31:00,
2013-02-06 20:41:00,17.0,14.0,-100.00,ESE,110,4.0,9.0,88,0.00,,,0.01,,2013-02-07 02:41:00,
2013-02-06 20:51:00,17.0,14.0,-100.00,ESE,110,4.0,9.0,88,0.00,,,0.01,,2013-02-07 02:51:00,
2013-02-06 21:02:00,17.0,14.0,-100.00,ESE,105,4.0,6.0,88,0.00,,,0.01,,2013-02-07 03:02:00,
2013-02-06 21:11:00,17.0,14.0,-100.00,SE,125,3.0,6.0,88,0.00,,,0.01,,2013-02-07 03:11:00,
2013-02-06 21:21:00,17.0,14.0,-100.00,ESE,115,4.0,7.0,88,0.00,,,0.01,,2013-02-07 03:21:00,
2013-02-06 21:31:00,17.0,14.0,-100.00,ESE,110,4.0,8.0,88,0.00,,,0.01,,2013-02-07 03:31:00,
2013-02-06 21:41:00,17.0,14.0,-100.00,ESE,105,6.0,7.0,87,0.00,,,0.01,,2013-02-07 03:41:00,
2013-02-06 21:52:00,17.0,14.0,-100.00,East,100,4.0,8.0,87,0.00,,,0.01,,2013-02-07 03:52:00,
2013-02-06 22:01:00,17.0,14.0,-100.00,East,100,4.0,9.0,87,0.00,,,0.01,,2013-02-07 04:01:00,
2013-02-06 22:11:00,17.0,14.0,-100.00,SE,125,4.0,10.0,86,0.00,,,0.01,,2013-02-07 04:11:00,
2013-02-06 22:22:00,17.0,14.0,-100.00,SE,125,4.0,9.0,86,0.00,,,0.01,,2013-02-07 04:22:00,
2013-02-06 22:31:00,17.0,14.0,-100.00,ESE,120,6.0,9.0,86,0.00,,,0.01,,2013-02-07 04:31:00,
2013-02-06 22:41:00,17.0,14.0,-100.00,ESE,115,6.0,9.0,86,0.00,,,0.01,,2013-02-07 04:41:00,
2013-02-06 22:52:00,17.0,14.0,-100.00,ESE,115,6.0,7.0,86,0.00,,,0.01,,2013-02-07 04:52:00,
2013-02-06 23:02:00,17.0,14.0,-100.00,ESE,115,4.0,7.0,86,0.00,,,0.01,,2013-02-07 05:02:00,
2013-02-06 23:11:00,18.0,14.0,-100.00,SE,125,4.0,7.0,86,0.00,,,0.01,,2013-02-07 05:11:00,
2013-02-06 23:21:00,18.0,14.0,-100.00,SE,130,3.0,6.0,86,0.00,,,0.01,,2013-02-07 05:21:00,
2013-02-06 23:32:00,18.0,14.0,-100.00,SE,130,4.0,6.0,86,0.00,,,0.01,,2013-02-07 05:32:00,
2013-02-06 23:42:00,18.0,14.0,-100.00,SE,125,4.0,6.0,86,0.00,,,0.01,,2013-02-07 05:42:00,
2013-02-06 23:52:00,18.0,14.0,-100.00,ESE,110,4.0,8.0,86,0.00,,,0.01,,2013-02-07 05:52:00,